TIROS 2 DEB *, 5922

Orbit data source: Space-Track

TIROS 2 DEB *, 5922 is space debris in LEO originally from a launch on Wed, 23 Nov 1960 UTC launched from the Air Force Eastern Test Range (AFETR). Debris objects in space refer to the collection of defunct objects orbiting the Earth. Examples of debris include non-operational satellites, rocket bodies, and fragments generated from explosions, collisions, or faulty payload assembly.

Loading next visibility...
Identifier
5922, 1960-016E
Orbit
LEO
Country
Flag of USUS
Related business
Manufacturer
Unknown
Mission
Spacecraft
Bus & Motor
Unknown
Mass
Unknown
Launch date (UTC)
1960-11-23 (65 years ago)
Launch vehicle
Unknown
Launch site
Air Force Eastern Test Range (AFETR)
Object type
Payload
Rocket body
Debris
Shape & HBR
Unknown shape, 0.1 m
Radar Cross Section
Small (<0.1 m²)

Expand to show TLE details & history
Last TLE update: 6 hours ago

TLE from 6 hours ago
0 TIROS 2 DEB *
1 05922U 60016E   25301.62999650 -.00000024  00000-0  11940-3 0  9993
2 05922  47.0332  18.6914 0040642 165.5871 347.3206 13.70033759719692
Epoch: 2025-10-28T15:07Z
TLE epoch observation values (Epoch: 2025-10-28T15:07:11.697Z)
Latitude
19.58652°
Longitude
-84.57235°
Altitude
969.977 km
Speed
7.384 km/s
True Right ascension
11h 57m 45s
True Declination
19° 28' 53"
Sunlit
Object was in daylight at epoch
Visualization orbit readout
Latitude
Unknown
Longitude
Unknown
Altitude
Unknown
Speed
Unknown
Apparent Right ascension
Unknown
Apparent Declination
Unknown
Sunlit
N/A
Visualization observer readout
Local Sidereal Time
17:04:01
Azimuth
Unknown
Elevation
Unknown
Doppler factor
Unknown
Orbital elements
Apogee altitude
1,030.618 km
Perigee altitude
970.641 km
Semi-major axis
7,378.766 km
Eccentricity
0.00406
Inclination
47.0332°
RAAN
18.6914°
Arg. of periapsis
165.5871°
True anomaly
347.21787°
Mean anomaly
347.3206°
Eccentric anomaly
347.26928°
Mean motion
3.42427 °/min
Orbital period
105.13 mins
BSTAR
0.0001194
Loading maneuver chart data...
Computing Atmospheric mass density...
Loading historical data...
Loading historical data...
Loading historical data...
Loading historical data...
Loading historical data...
Loading historical data...
Loading historical data...
Other satellites on launch #16 in the year 1960 (1960-11-23 UTC)

Documentation

Showing up to 5 results
|